BLY48 EGNM-EGGP

Flight info

Callsign BLY48
Flight time N/A
Altitude 8000
Route POL
Aircraft B738/M-SDE2E3FGHIRWXY/LB1

Departure

Time 2026-05-01 15:31
Airport Leeds Bradford Airport (EGNM)

Arrival

Time N/A
Airport Liverpool John Lennon Airport (EGGP)
Time Latitude Longitude Altitude Speed Heading
2026-05-01 15:10 53.86908 -1.66134 672 ft 0 kts 47°
2026-05-01 15:23 53.86906 -1.66138 672 ft 4 kts 48°
2026-05-01 15:24 53.86887 -1.66166 673 ft 4 kts 15°
2026-05-01 15:24 53.86865 -1.66162 672 ft 4 kts 323°
2026-05-01 15:24 53.86859 -1.66154 672 ft 1 kts 319°
2026-05-01 15:26 53.86863 -1.66160 672 ft 4 kts 319°
2026-05-01 15:26 53.86914 -1.66239 673 ft 14 kts 316°
2026-05-01 15:27 53.86972 -1.66366 675 ft 13 kts 299°
2026-05-01 15:27 53.86989 -1.66507 671 ft 13 kts 243°
2026-05-01 15:27 53.86978 -1.66646 669 ft 13 kts 315°
2026-05-01 15:28 53.87124 -1.66871 674 ft 18 kts 318°
2026-05-01 15:28 53.87226 -1.66992 680 ft 18 kts 350°
2026-05-01 15:28 53.87347 -1.66993 683 ft 15 kts 359°
2026-05-01 15:29 53.87323 -1.67175 682 ft 11 kts 163°
2026-05-01 15:29 53.87306 -1.67157 680 ft 0 kts 139°
2026-05-01 15:29 53.87171 -1.66951 678 ft 58 kts 137°
2026-05-01 15:30 53.86189 -1.65446 714 ft 160 kts 139°
2026-05-01 15:31 53.82686 -1.60480 3466 ft 181 kts 158°
2026-05-01 15:31 53.79898 -1.60334 4048 ft 224 kts 206°
2026-05-01 15:32 53.78061 -1.64879 5025 ft 264 kts 263°
2026-05-01 15:32 53.77850 -1.71110 6694 ft 269 kts 262°
2026-05-01 15:33 53.77124 -1.80576 7625 ft 279 kts 257°
2026-05-01 15:34 53.76232 -1.90435 8107 ft 278 kts 257°